Retour au catalogue

STARLINK-30910

ActifCommunicationsVLEO
NORAD 58376·PAYLOAD·🇺🇸 United States

Lancé Nov 20, 2023 depuis Vandenberg Space Force Base

Loading…

Prochains Passages (prochaines 24 heures)

TLE

FraisSource: CelesTrak SupGP

Époque: Sep 15, 2026, 02:39 UTC

1 58376C 23178C   26258.11090278 -.00072695  00000+0 -21478-2 0  2583
2 58376  53.1576 196.9661 0001300  83.7629 249.0788 15.34427297    18

Suivez STARLINK-30910 en temps réel avec AllMySat

Download on the App Store